IZ3ZOD-13 Weather Reports


Display with metric or nautical units.
time (UTC)temp
F
wind
direction
speed
MPH
gust
MPH
rain 1hr
in
rain 24hr
in
rain mn
in
humidity
%
barometer
mb
20260509070803 67 261 1.0 2.0 0.00 0.00 0.00 70 1017.7
20260509070403 66 258 1.0 2.0 0.00 0.00 0.00 72 1017.8
20260509070004 65 250 1.0 3.0 0.00 0.00 0.00 74 1017.8
20260509065603 65 257 1.0 3.0 0.00 0.00 0.00 76 1017.7
20260509065203 64 258 2.0 3.0 0.00 0.00 0.00 77 1017.7
20260509065017 65 259 2.0 3.0 0.00 0.00 0.00 75 1017.4
20260509064403 65 252 1.0 2.0 0.00 0.00 0.00 75 1017.4
20260509064003 66 306 0.0 1.0 0.00 0.00 0.00 74 1017.4
20260509063603 65 358 0.0 2.0 0.00 0.00 0.00 76 1017.6
20260509063203 64 3 1.0 2.0 0.00 0.00 0.00 76 1017.5
20260509062803 64 15 0.0 2.0 0.00 0.00 0.00 77 1017.4
20260509062403 64 293 0.0 2.0 0.00 0.00 0.00 78 1017.5
20260509062212 64 275 0.0 1.0 0.00 0.00 0.00 79 1017.2
20260509061603 62 273 1.0 3.0 0.00 0.00 0.00 80 1017.2
20260509061203 62 270 1.0 3.0 0.00 0.00 0.00 81 1017.3
20260509060803 61 265 1.0 3.0 0.00 0.00 0.00 84 1017.4
20260509060615 61 266 1.0 3.0 0.00 0.00 0.00 83 1017.4
20260509060004 61 266 1.0 3.0 0.00 0.00 0.00 83 1017.3
20260509055603 61 267 1.0 3.0 0.00 0.00 0.00 85 1017.4
20260509055413 61 263 1.0 3.0 0.00 0.00 0.00 84 1017.5
20260509054803 61 261 0.0 2.0 0.00 0.00 0.00 85 1017.2
20260509054403 60 253 0.0 1.0 0.00 0.00 0.00 88 1017.2
20260509054003 60 253 0.0 1.0 0.00 0.00 0.00 91 1017.2
20260509053603 59 253 0.0 1.0 0.00 0.00 0.00 92 1017.2
20260509053415 58 253 0.0 1.0 0.00 0.00 0.00 93 1017.2
20260509052803 57 252 0.0 2.0 0.00 0.00 0.00 94 1017.2
20260509052403 57 252 0.0 2.0 0.00 0.00 0.00 94 1017.1
20260509052003 57 252 0.0 1.0 0.00 0.00 0.00 95 1017.2
20260509051812 57 252 0.0 1.0 0.00 0.00 0.00 95 1017.2
20260509051203 56 250 0.0 2.0 0.00 0.00 0.00 96 1017.2
20260509050803 56 247 0.0 2.0 0.00 0.00 0.00 96 1017.3
20260509050403 56 225 0.0 2.0 0.00 0.00 0.00 96 1017.2
20260509050003 56 202 0.0 2.0 0.00 0.00 0.00 96 1017.0
20260509045603 56 198 0.0 2.0 0.00 0.00 0.00 96 1017.0
20260509045414 56 0 0.0 0.0 0.00 0.00 0.00 96 1017.0
20260509044803 54 0 0.0 0.0 0.00 0.00 0.00 96 1016.9
20260509044403 54 0 0.0 0.0 0.00 0.00 0.00 96 1016.9
20260509044003 54 0 0.0 0.0 0.00 0.00 0.00 96 1016.9
20260509043816 54 0 0.0 0.0 0.00 0.00 0.00 96 1017.0
20260509043203 54 0 0.0 0.0 0.00 0.00 0.00 96 1016.9
20260509042803 53 0 0.0 0.0 0.00 0.00 0.00 96 1016.8
20260509042403 53 0 0.0 0.0 0.00 0.00 0.00 96 1016.8
20260509042004 53 0 0.0 0.0 0.00 0.00 0.00 96 1016.8
20260509041603 53 0 0.0 0.0 0.00 0.00 0.00 96 1016.8
20260509041203 53 0 0.0 0.0 0.00 0.00 0.00 96 1016.8
20260509040804 53 0 0.0 0.0 0.00 0.00 0.00 96 1016.8
20260509040403 53 0 0.0 0.0 0.00 0.00 0.00 96 1016.7
20260509040003 53 0 0.0 0.0 0.00 0.00 0.00 96 1016.7
20260509035603 53 0 0.0 0.0 0.00 0.00 0.00 96 1016.6
20260509035203 53 0 0.0 0.0 0.00 0.00 0.00 96 1016.7
20260509034803 53 0 0.0 0.0 0.00 0.00 0.00 96 1016.6
20260509034403 53 0 0.0 0.0 0.00 0.00 0.00 96 1016.8
20260509034004 53 0 0.0 0.0 0.00 0.00 0.00 96 1016.7
20260509033603 53 0 0.0 0.0 0.00 0.00 0.00 96 1016.8
20260509033203 53 0 0.0 0.0 0.00 0.00 0.00 96 1016.7
20260509033015 53 0 0.0 0.0 0.00 0.00 0.00 96 1016.9
20260509032403 53 0 0.0 0.0 0.00 0.00 0.00 96 1016.8
20260509032214 53 0 0.0 0.0 0.00 0.00 0.00 96 1016.6
20260509031603 53 0 0.0 0.0 0.00 0.00 0.00 96 1016.7
20260509031203 53 0 0.0 0.0 0.00 0.00 0.00 96 1016.8
20260509030803 53 0 0.0 0.0 0.00 0.00 0.00 96 1016.9
20260509030403 53 0 0.0 0.0 0.00 0.00 0.00 96 1016.7
20260509030003 53 0 0.0 0.0 0.00 0.00 0.00 96 1016.7
20260509025603 54 0 0.0 0.0 0.00 0.00 0.00 96 1016.7
20260509025203 54 0 0.0 0.0 0.00 0.00 0.00 96 1016.6
20260509024803 54 0 0.0 0.0 0.00 0.00 0.00 96 1016.5
20260509024403 54 0 0.0 0.0 0.00 0.00 0.00 96 1016.5
20260509024003 54 0 0.0 0.0 0.00 0.00 0.00 96 1016.6
20260509023603 54 0 0.0 0.0 0.00 0.00 0.00 96 1016.8
20260509023203 54 0 0.0 0.0 0.00 0.00 0.00 95 1016.7
20260509022803 54 0 0.0 0.0 0.00 0.00 0.00 95 1016.9
20260509022615 54 0 0.0 0.0 0.00 0.00 0.00 95 1016.8
20260509022215 55 0 0.0 0.0 0.00 0.00 0.00 95 1016.7
20260509021603 54 0 0.0 0.0 0.00 0.00 0.00 96 1016.8
20260509021203 54 0 0.0 0.0 0.00 0.00 0.00 95 1016.7
20260509020803 54 0 0.0 0.0 0.00 0.00 0.00 95 1016.7
20260509020403 54 0 0.0 0.0 0.00 0.00 0.00 95 1016.6
20260509020003 54 0 0.0 0.0 0.00 0.00 0.00 95 1016.7
20260509015603 54 0 0.0 0.0 0.00 0.00 0.00 95 1016.8
20260509015203 54 0 0.0 0.0 0.00 0.00 0.00 95 1016.8
20260509014803 54 0 0.0 0.0 0.00 0.00 0.00 95 1016.6
20260509014403 54 0 0.0 0.0 0.00 0.00 0.00 95 1016.6
20260509014214 54 0 0.0 0.0 0.00 0.00 0.00 95 1016.6
20260509013603 54 0 0.0 0.0 0.00 0.00 0.00 95 1016.5
20260509013203 54 0 0.0 0.0 0.00 0.00 0.00 95 1016.6
20260509013017 54 0 0.0 0.0 0.00 0.00 0.00 95 1016.4
20260509012403 55 0 0.0 0.0 0.00 0.00 0.00 95 1016.6
20260509012215 54 0 0.0 0.0 0.00 0.00 0.00 95 1016.5
20260509011603 55 0 0.0 0.0 0.00 0.00 0.00 95 1016.4
20260509011203 54 0 0.0 0.0 0.00 0.00 0.00 95 1016.5
20260509010803 54 0 0.0 0.0 0.00 0.00 0.00 94 1016.5
20260509010403 54 0 0.0 0.0 0.00 0.00 0.00 94 1016.4
20260509010004 54 0 0.0 0.0 0.00 0.00 0.00 94 1016.3
20260509005603 54 0 0.0 0.0 0.00 0.00 0.00 94 1016.5
20260509005203 54 0 0.0 0.0 0.00 0.00 0.00 94 1016.4
20260509004803 55 0 0.0 0.0 0.00 0.00 0.00 94 1016.4
20260509004615 55 0 0.0 0.0 0.00 0.00 0.00 94 1016.5
20260509004003 55 0 0.0 0.0 0.00 0.00 0.00 94 1016.5
20260509003603 55 0 0.0 0.0 0.00 0.00 0.00 94 1016.5
20260509003203 55 0 0.0 0.0 0.00 0.00 0.00 94 1016.5
20260509002803 55 0 0.0 0.0 0.00 0.00 0.00 94 1016.6
20260509002403 55 0 0.0 0.0 0.00 0.00 0.00 94 1016.3
20260509002003 55 0 0.0 0.0 0.00 0.00 0.00 93 1016.3
20260509001603 56 0 0.0 0.0 0.00 0.00 0.00 93 1016.5
20260509001203 56 0 0.0 0.0 0.00 0.00 0.00 93 1016.1
20260509000803 56 0 0.0 0.0 0.00 0.00 0.00 93 1016.2
20260509000403 56 0 0.0 0.0 0.00 0.00 0.00 93 1016.3
20260509000213 56 0 0.0 0.0 0.00 0.00 0.00 93 1016.5
20260508235603 55 0 0.0 0.0 0.00 0.00 0.00 93 1016.2
20260508235203 56 0 0.0 0.0 0.00 0.00 0.00 92 1016.4
20260508234803 56 0 0.0 0.0 0.00 0.00 0.00 92 1016.5
20260508234403 56 0 0.0 0.0 0.00 0.00 0.00 92 1016.3
20260508234003 56 0 0.0 0.0 0.00 0.00 0.00 92 1016.3
20260508233603 56 0 0.0 0.0 0.00 0.00 0.00 93 1016.4
20260508233203 56 0 0.0 0.0 0.00 0.00 0.00 92 1016.4
20260508232803 56 0 0.0 0.0 0.00 0.00 0.00 92 1016.3
20260508232403 56 0 0.0 0.0 0.00 0.00 0.00 92 1016.5
20260508232003 56 0 0.0 0.0 0.00 0.00 0.00 92 1016.5
20260508231603 57 0 0.0 0.0 0.00 0.00 0.00 92 1016.4
20260508231203 57 0 0.0 0.0 0.00 0.00 0.00 92 1016.4
20260508230803 57 0 0.0 0.0 0.00 0.00 0.00 92 1016.5
20260508230403 57 0 0.0 0.0 0.00 0.00 0.00 92 1016.6
20260508230213 57 0 0.0 0.0 0.00 0.00 0.00 92 1016.3
20260508225813 57 0 0.0 0.0 0.00 0.00 0.00 92 1016.6
20260508225203 57 0 0.0 0.0 0.00 0.00 0.00 91 1016.5
20260508224803 57 0 0.0 0.0 0.00 0.00 0.00 91 1016.6
20260508224403 57 0 0.0 0.0 0.00 0.00 0.00 91 1016.5
20260508224003 57 0 0.0 0.0 0.00 0.00 0.00 91 1016.6
20260508223603 57 0 0.0 0.0 0.00 0.00 0.00 91 1016.6
20260508223203 57 0 0.0 0.0 0.00 0.00 0.00 90 1016.5
20260508222803 57 0 0.0 0.0 0.00 0.00 0.00 90 1016.7
20260508222403 58 0 0.0 0.0 0.00 0.00 0.00 90 1016.7
20260508222003 58 0 0.0 0.0 0.00 0.00 0.00 90 1016.5
20260508221603 58 0 0.0 0.0 0.00 0.00 0.00 90 1016.6
20260508221203 58 0 0.0 0.0 0.00 0.00 0.00 89 1016.6
20260508221016 58 0 0.0 0.0 0.00 0.00 0.00 89 1016.5
20260508220403 58 0 0.0 0.0 0.00 0.00 0.00 88 1016.6
20260508220004 58 0 0.0 0.0 0.00 0.00 0.00 88 1016.5
20260508215603 59 0 0.0 0.0 0.00 0.00 0.00 87 1016.4
20260508215203 59 0 0.0 0.0 0.00 0.00 0.00 87 1016.3
20260508215012 59 0 0.0 0.0 0.00 0.00 0.00 87 1016.5
20260508214403 60 0 0.0 0.0 0.00 0.00 0.00 86 1016.4
20260508214216 60 0 0.0 0.0 0.00 0.00 0.00 86 1016.4
20260508213603 60 0 0.0 0.0 0.00 0.00 0.00 86 1016.5
20260508213203 60 0 0.0 0.0 0.00 0.00 0.00 86 1016.2
20260508212803 60 0 0.0 0.0 0.00 0.00 0.00 86 1016.4
20260508212613 60 0 0.0 0.0 0.00 0.00 0.00 86 1016.4
20260508212003 60 0 0.0 0.0 0.00 0.00 0.00 85 1016.3
20260508211817 60 0 0.0 0.0 0.00 0.00 0.00 84 1016.4
20260508211203 61 199 0.0 0.0 0.00 0.00 0.00 83 1016.3
20260508210803 61 199 0.0 1.0 0.00 0.00 0.00 83 1016.4
20260508210403 61 199 1.0 2.0 0.00 0.00 0.00 82 1016.4
20260508210003 62 194 1.0 2.0 0.00 0.00 0.00 82 1016.4
20260508205603 62 197 2.0 2.0 0.00 0.00 0.00 81 1016.3
20260508205413 62 200 2.0 3.0 0.00 0.00 0.00 81 1016.4
20260508204803 62 208 2.0 3.0 0.00 0.00 0.00 81 1016.4
20260508204403 62 209 2.0 3.0 0.00 0.00 0.00 80 1016.5
20260508204003 62 211 2.0 3.0 0.00 0.00 0.00 80 1016.3
20260508203816 62 211 2.0 3.0 0.00 0.00 0.00 80 1016.6
20260508203203 63 211 2.0 4.0 0.00 0.00 0.00 79 1016.3
20260508202803 63 208 3.0 4.0 0.00 0.00 0.00 79 1016.5
20260508202403 63 207 3.0 4.0 0.00 0.00 0.00 79 1016.4
20260508202003 63 208 3.0 4.0 0.00 0.00 0.00 79 1016.2
20260508201813 63 208 3.0 4.0 0.00 0.00 0.00 78 1016.3
20260508201203 63 207 2.0 3.0 0.00 0.00 0.00 78 1016.3
20260508200803 63 205 2.0 4.0 0.00 0.00 0.00 78 1016.2
20260508200403 63 202 2.0 4.0 0.00 0.00 0.00 78 1016.2
20260508200004 63 196 2.0 3.0 0.00 0.00 0.00 78 1016.2
20260508195603 63 190 1.0 2.0 0.00 0.00 0.00 77 1016.0
20260508195414 63 192 1.0 2.0 0.00 0.00 0.00 77 1016.2
20260508194803 63 193 2.0 2.0 0.00 0.00 0.00 77 1016.2
20260508194403 63 179 2.0 3.0 0.00 0.00 0.00 76 1016.0
20260508194217 64 181 2.0 3.0 0.00 0.00 0.00 76 1016.1
20260508193817 64 182 2.0 3.0 0.00 0.00 0.00 76 1016.0
20260508193203 64 184 2.0 3.0 0.00 0.00 0.00 75 1016.0
20260508193015 64 183 2.0 3.0 0.00 0.00 0.00 74 1016.1
20260508192615 64 182 2.0 3.0 0.00 0.00 0.00 73 1016.0
20260508192003 64 175 2.0 3.0 0.00 0.00 0.00 70 1015.9
20260508191603 64 174 2.0 3.0 0.00 0.00 0.00 69 1015.8
20260508191203 64 177 1.0 3.0 0.00 0.00 0.00 69 1015.7
20260508190803 65 182 1.0 3.0 0.00 0.00 0.00 69 1015.8
20260508190403 65 158 0.0 3.0 0.00 0.00 0.00 68 1015.7
20260508190216 65 155 0.0 1.0 0.00 0.00 0.00 68 1015.7
20260508185603 65 150 1.0 2.0 0.00 0.00 0.00 68 1015.5
20260508185415 65 149 1.0 2.0 0.00 0.00 0.00 68 1015.5
20260508184803 65 147 1.0 2.0 0.00 0.00 0.00 67 1015.5
20260508184403 65 147 1.0 2.0 0.00 0.00 0.00 67 1015.4
20260508184003 66 147 0.0 1.0 0.00 0.00 0.00 67 1015.3
20260508183603 66 148 0.0 1.0 0.00 0.00 0.00 67 1015.3
20260508183417 66 147 0.0 1.0 0.00 0.00 0.00 66 1015.2
20260508182803 66 149 1.0 1.0 0.00 0.00 0.00 66 1015.1
20260508182403 66 154 1.0 3.0 0.00 0.00 0.00 66 1015.1
20260508182003 67 157 2.0 4.0 0.00 0.00 0.00 64 1015.1
20260508181603 67 157 2.0 4.0 0.00 0.00 0.00 64 1015.1
20260508181203 67 161 2.0 4.0 0.00 0.00 0.00 63 1014.9
20260508181013 67 160 2.0 3.0 0.00 0.00 0.00 63 1015.0
20260508180403 68 161 2.0 3.0 0.00 0.00 0.00 63 1015.1
20260508180003 68 159 2.0 4.0 0.00 0.00 0.00 62 1014.8
20260508175603 68 162 3.0 4.0 0.00 0.00 0.00 62 1015.1
20260508175203 69 161 3.0 6.0 0.00 0.00 0.00 61 1014.9
20260508174803 69 163 3.0 6.0 0.00 0.00 0.00 61 1014.8
20260508174614 69 161 3.0 6.0 0.00 0.00 0.00 60 1014.7
20260508174003 69 165 4.0 7.0 0.00 0.00 0.00 60 1014.8
20260508173603 69 165 4.0 7.0 0.00 0.00 0.00 59 1014.8
20260508173203 69 164 4.0 6.0 0.00 0.00 0.00 58 1014.9
20260508173017 69 166 4.0 6.0 0.00 0.00 0.00 58 1014.8
20260508172403 69 167 4.0 6.0 0.00 0.00 0.00 58 1014.7
20260508172003 69 164 4.0 6.0 0.00 0.00 0.00 57 1014.8
20260508171815 69 167 3.0 6.0 0.00 0.00 0.00 58 1014.7
20260508171414 69 161 3.0 5.0 0.00 0.00 0.00 59 1014.6
20260508170803 69 161 4.0 7.0 0.00 0.00 0.00 59 1014.8
20260508170403 69 158 4.0 7.0 0.00 0.00 0.00 58 1014.7
20260508170003 69 159 4.0 7.0 0.00 0.00 0.00 59 1014.8
20260508165603 69 157 3.0 5.0 0.00 0.00 0.00 58 1014.6
20260508165416 69 161 3.0 7.0 0.00 0.00 0.00 59 1014.9
20260508164803 70 160 4.0 7.0 0.00 0.00 0.00 58 1014.8
20260508164403 70 159 4.0 6.0 0.00 0.00 0.00 59 1014.7
20260508164003 70 159 5.0 7.0 0.00 0.00 0.00 58 1014.8
20260508163813 70 159 5.0 9.0 0.00 0.00 0.00 58 1014.8
20260508163203 70 163 6.0 9.0 0.00 0.00 0.00 57 1014.6
20260508163012 70 162 5.0 9.0 0.00 0.00 0.00 57 1014.7
20260508162617 70 160 5.0 9.0 0.00 0.00 0.00 57 1014.7
20260508162003 71 153 4.0 9.0 0.00 0.00 0.00 56 1014.8
20260508161603 71 155 4.0 8.0 0.00 0.00 0.00 56 1014.8
20260508161203 71 157 4.0 8.0 0.00 0.00 0.00 54 1014.5
20260508160803 71 155 4.0 7.0 0.00 0.00 0.00 52 1014.7
20260508160403 71 153 3.0 7.0 0.00 0.00 0.00 50 1014.7
20260508160004 72 154 2.0 7.0 0.00 0.00 0.00 50 1014.6
20260508155603 72 149 1.0 3.0 0.00 0.00 0.00 50 1014.6
20260508155203 72 147 2.0 4.0 0.00 0.00 0.00 52 1014.6
20260508155016 71 145 2.0 4.0 0.00 0.00 0.00 53 1014.7
20260508154403 72 137 2.0 4.0 0.00 0.00 0.00 52 1014.6
20260508154215 72 134 2.0 3.0 0.00 0.00 0.00 53 1014.6
20260508153603 71 135 2.0 5.0 0.00 0.00 0.00 53 1014.5
20260508153203 71 146 2.0 5.0 0.00 0.00 0.00 53 1014.8
20260508152803 71 146 2.0 6.0 0.00 0.00 0.00 53 1014.7
20260508152403 71 149 3.0 6.0 0.00 0.00 0.00 52 1014.6
20260508152003 72 141 2.0 6.0 0.00 0.00 0.00 52 1014.6
20260508151816 72 138 2.0 4.0 0.00 0.00 0.00 54 1014.7
20260508151415 72 120 2.0 4.0 0.00 0.00 0.00 52 1014.5
20260508150803 72 135 3.0 6.0 0.00 0.00 0.00 51 1014.5
20260508150403 72 157 3.0 6.0 0.00 0.00 0.00 52 1014.7
20260508150004 72 164 3.0 7.0 0.00 0.00 0.00 50 1014.6
20260508145603 72 159 4.0 7.0 0.00 0.00 0.00 51 1014.7
20260508145203 72 133 3.0 6.0 0.00 0.00 0.00 52 1014.8
20260508144803 72 135 3.0 7.0 0.00 0.00 0.00 51 1014.8
20260508144616 72 138 3.0 7.0 0.00 0.00 0.00 50 1014.8
20260508144003 72 120 4.0 7.0 0.00 0.00 0.00 50 1014.8
20260508143603 72 101 4.0 6.0 0.00 0.00 0.00 53 1014.8
20260508143203 73 103 4.0 8.0 0.00 0.00 0.00 52 1014.8
20260508142803 72 118 3.0 8.0 0.00 0.00 0.00 52 1015.0
20260508142403 73 110 3.0 6.0 0.00 0.00 0.00 53 1015.0
20260508142217 73 101 4.0 9.0 0.00 0.00 0.00 53 1014.9
20260508141817 73 109 4.0 9.0 0.00 0.00 0.00 53 1015.0
20260508141203 73 130 3.0 7.0 0.00 0.00 0.00 53 1015.0
20260508140803 73 135 3.0 5.0 0.00 0.00 0.00 51 1014.9
20260508140403 73 152 4.0 9.0 0.00 0.00 0.00 53 1014.8
20260508140003 72 150 4.0 9.0 0.00 0.00 0.00 56 1015.2
20260508135603 73 151 4.0 9.0 0.00 0.00 0.00 55 1015.1
20260508135203 73 114 3.0 6.0 0.00 0.00 0.00 52 1015.0
20260508135012 73 107 3.0 6.0 0.00 0.00 0.00 55 1015.0
20260508134617 73 100 3.0 7.0 0.00 0.00 0.00 55 1015.0
20260508134003 73 121 3.0 7.0 0.00 0.00 0.00 54 1015.1
20260508133603 73 115 4.0 8.0 0.00 0.00 0.00 54 1015.5
20260508133203 72 110 4.0 8.0 0.00 0.00 0.00 55 1015.2
20260508132803 73 131 4.0 7.0 0.00 0.00 0.00 54 1015.3
20260508132403 72 157 4.0 8.0 0.00 0.00 0.00 57 1015.3
20260508132003 72 155 4.0 8.0 0.00 0.00 0.00 56 1015.2
20260508131603 73 151 4.0 8.0 0.00 0.00 0.00 54 1015.4
20260508131203 73 156 4.0 9.0 0.00 0.00 0.00 56 1015.4
20260508130803 72 156 5.0 9.0 0.00 0.00 0.00 57 1015.4
20260508130403 72 147 5.0 8.0 0.00 0.00 0.00 58 1015.4
20260508130004 72 131 4.0 8.0 0.00 0.00 0.00 57 1015.5
20260508125603 72 105 4.0 9.0 0.00 0.00 0.00 58 1015.6
20260508125203 72 81 4.0 9.0 0.00 0.00 0.00 60 1015.3
20260508124803 72 88 4.0 8.0 0.00 0.00 0.00 58 1015.5
20260508124403 72 89 4.0 7.0 0.00 0.00 0.00 60 1015.3
20260508124003 73 116 4.0 6.0 0.00 0.00 0.00 57 1015.5
20260508123603 72 124 3.0 7.0 0.00 0.00 0.00 58 1015.5
20260508123203 73 105 3.0 9.0 0.00 0.00 0.00 56 1015.5
20260508122803 73 91 4.0 9.0 0.00 0.00 0.00 56 1015.6
20260508122403 72 98 4.0 6.0 0.00 0.00 0.00 55 1015.6
20260508122214 72 93 4.0 6.0 0.00 0.00 0.00 52 1015.7
20260508121603 73 112 3.0 9.0 0.00 0.00 0.00 54 1015.7
20260508121203 73 100 3.0 9.0 0.00 0.00 0.00 55 1015.7
20260508120803 73 84 3.0 8.0 0.00 0.00 0.00 51 1015.5
20260508120616 73 82 3.0 8.0 0.00 0.00 0.00 52 1015.7
20260508120004 74 81 2.0 4.0 0.00 0.00 0.00 52 1015.8
20260508115603 74 70 2.0 6.0 0.00 0.00 0.00 50 1015.6
20260508115203 72 73 3.0 6.0 0.00 0.00 0.00 49 1015.8
20260508114803 72 87 3.0 8.0 0.00 0.00 0.00 52 1015.8
20260508114403 72 96 4.0 8.0 0.00 0.00 0.00 49 1015.8
20260508114003 72 83 3.0 8.0 0.00 0.00 0.00 54 1015.8
20260508113603 74 78 2.0 7.0 0.00 0.00 0.00 51 1015.8
20260508113203 73 41 2.0 5.0 0.00 0.00 0.00 55 1015.9
20260508112803 72 48 2.0 5.0 0.00 0.00 0.00 52 1015.9
20260508112403 73 66 3.0 7.0 0.00 0.00 0.00 52 1015.9
20260508112003 72 79 2.0 7.0 0.00 0.00 0.00 51 1015.9
20260508111813 72 54 2.0 7.0 0.00 0.00 0.00 53 1015.9
20260508111203 71 11 3.0 8.0 0.00 0.00 0.00 59 1015.8
20260508110804 71 31 4.0 8.0 0.00 0.00 0.00 59 1015.9
20260508110403 71 47 4.0 8.0 0.00 0.00 0.00 59 1015.9
20260508110004 71 57 3.0 6.0 0.00 0.00 0.00 62 1016.0
20260508105815 71 59 3.0 6.0 0.00 0.00 0.00 61 1016.0
20260508105203 71 34 4.0 9.0 0.00 0.00 0.00 63 1016.0
20260508105014 71 40 4.0 9.0 0.00 0.00 0.00 63 1016.1
20260508104613 71 31 4.0 9.0 0.00 0.00 0.00 63 1016.1
20260508104213 70 63 3.0 8.0 0.00 0.00 0.00 65 1016.1
20260508103603 69 108 3.0 8.0 0.00 0.00 0.00 67 1016.0
20260508103203 68 97 3.0 8.0 0.00 0.00 0.00 67 1016.3
20260508102803 70 79 4.0 7.0 0.00 0.00 0.00 64 1016.3
20260508102403 69 73 3.0 7.0 0.00 0.00 0.00 66 1016.2
20260508102003 70 50 3.0 6.0 0.00 0.00 0.00 66 1016.4
20260508101603 69 45 3.0 5.0 0.00 0.00 0.00 67 1016.4
20260508101203 68 60 3.0 5.0 0.00 0.00 0.00 68 1016.4
20260508100803 69 73 4.0 8.0 0.00 0.00 0.00 68 1016.4
20260508100403 69 81 4.0 8.0 0.00 0.00 0.00 67 1016.4
20260508095603 70 93 3.0 8.0 0.00 0.00 0.00 63 1016.5
20260508095203 69 80 3.0 7.0 0.00 0.00 0.00 66 1016.6
20260508094803 68 68 3.0 7.0 0.00 0.00 0.00 70 1016.4
20260508094403 68 73 3.0 7.0 0.00 0.00 0.00 69 1016.4
20260508094003 68 76 4.0 7.0 0.00 0.00 0.00 69 1016.6
20260508093603 67 70 3.0 7.0 0.00 0.00 0.00 70 1016.6
20260508093203 67 47 3.0 7.0 0.00 0.00 0.00 71 1016.6
20260508092803 67 36 3.0 5.0 0.00 0.00 0.00 72 1016.7
20260508092403 67 34 4.0 8.0 0.00 0.00 0.00 71 1016.8
20260508092003 67 38 5.0 8.0 0.00 0.00 0.00 73 1016.7
20260508091603 67 42 4.0 8.0 0.00 0.00 0.00 71 1016.6
20260508091203 67 48 4.0 9.0 0.00 0.00 0.00 71 1016.7
20260508090803 67 49 5.0 9.0 0.00 0.00 0.00 71 1016.6
20260508090403 68 59 5.0 9.0 0.00 0.00 0.00 70 1016.7
20260508090213 68 61 4.0 8.0 0.00 0.00 0.00 70 1016.7
20260508085603 67 61 4.0 7.0 0.00 0.00 0.00 71 1016.7
20260508085417 67 57 4.0 7.0 0.00 0.00 0.00 70 1016.7
20260508084803 67 73 4.0 9.0 0.00 0.00 0.00 73 1016.5
20260508084403 67 80 5.0 9.0 0.00 0.00 0.00 74 1016.6
20260508084003 68 74 5.0 9.0 0.00 0.00 0.00 71 1016.7
20260508083603 68 60 5.0 8.0 0.00 0.00 0.00 72 1016.6
20260508083203 67 61 5.0 8.0 0.00 0.00 0.00 73 1016.6
20260508082803 67 56 5.0 8.0 0.00 0.00 0.00 75 1016.5
20260508082403 66 54 5.0 7.0 0.00 0.00 0.00 75 1016.4
20260508082003 66 43 4.0 7.0 0.00 0.00 0.00 76 1016.4
20260508081603 66 37 4.0 9.0 0.00 0.00 0.00 75 1016.6
20260508081203 66 48 4.0 9.0 0.00 0.00 0.00 75 1016.6
20260508080803 66 50 4.0 6.0 0.00 0.00 0.00 77 1016.3
20260508080614 66 48 4.0 9.0 0.00 0.00 0.00 77 1016.6
20260508080214 65 50 4.0 9.0 0.00 0.00 0.00 78 1016.4
20260508075813 65 52 5.0 9.0 0.00 0.00 0.00 79 1016.3
20260508075203 65 51 4.0 8.0 0.00 0.00 0.00 79 1016.3
20260508074803 65 58 5.0 9.0 0.00 0.00 0.00 79 1016.6
20260508074403 65 62 5.0 9.0 0.00 0.00 0.00 79 1016.3
20260508074003 66 57 4.0 8.0 0.00 0.00 0.00 78 1016.4
20260508073815 65 63 4.0 8.0 0.00 0.00 0.00 82 1016.4
20260508073203 65 72 4.0 8.0 0.00 0.00 0.00 80 1016.3
20260508072803 65 64 4.0 8.0 0.00 0.00 0.00 82 1016.2
20260508072403 64 49 3.0 6.0 0.00 0.00 0.00 84 1016.2
20260508072217 64 42 3.0 6.0 0.00 0.00 0.00 84 1016.2
20260508071603 63 55 4.0 8.0 0.00 0.00 0.00 85 1016.3
20260508071416 63 62 4.0 8.0 0.00 0.00 0.00 86 1016.3